Location: Zagreb
(45.8000°N, 16.0000°E)
Time: 20:59:29
(UTC+01:00)

DX 1 - Pass Details

Date: 04 November 2020
Orbit: 619 x 630 km, 98.5° (Epoch: 01 December)

Event Time Altitude Azimuth Distance (km) Brightness Sun altitude
Rises 04:17:58 0° 129° (SE) 2,888 ? -25.2°
Reaches altitude 10° 04:20:31 10° 114° (ESE) 1,986 ? -24.8°
Maximum altitude 04:23:49 22° 64° (ENE) 1,373 ? -24.2°
Drops below altitude 10° 04:27:07 10° 14° (NNE) 1,996 ? -23.6°
Sets 04:29:42 0° 359° (N) 2,908 ? -23.2°
